IRIDIUM 168

Last updated on Sun Jun 21 2026 00:03:14 GMT+0000 (Coordinated Universal Time)

1 43924U 19002C 26171.47849925 .00000174 00000+0 54932-4 0 9997 2 43924 86.3974 352.2986 0002212 89.9105 270.2344 14.34220159389446
UTC large
Height (km)
Speed (km/s)
/
Latitude / Longitude
Inclination (degrees)
Orbital Period (minutes)
Azimuth
Elevation
Range (km)
Doppler Factor

Next 0 passes for location: London (51.5072 / 0.1276)

No passes found over London.
IRIDIUM 168